Flag for Canada Weather past 2 weeks in London, Ontario, Canada

Now
57 °F

Drizzle. Fog.


Feels Like: 57 °F
Forecast: 55 / 70 °F
Wind: 5 mph from Southeast

Location: London Weather Station

Current Time: Oct 2, 2014 at 5:37:59 AM

Latest Report: Oct 2, 2014 at 5:00 AM


Visibility: 2 mi

Pressure: 30.08 "Hg

Humidity: 100%

Dew point: 57 °F

Location of LondonLocation

Historic Weather in London — Graph

°F

London temperature yesterday

Maximum temperature yesterday: 63 °F (at 3:00 PM)
Minimum temperature yesterday: 55 °F (at 12:00 AM)
Average temperature yesterday: 59 °F

Past Weeks' High & Low Weather Summary

 TemperatureHumidityPressure
High77 °F (Sep 27, 4:00 PM)100% (Sep 17, 5:00 AM)30.49 "Hg (Sep 17, 5:00 AM)
Low39 °F (Sep 19, 6:00 AM)47% (Sep 24, 1:00 PM)29.57 "Hg (Sep 21, 7:53 AM)
Average58 °F82%30.12 "Hg
* Reported Sep 17 4:00 AM — Oct 2 4:00 AM, London, Weather by CustomWeather, © 2014

Note: Actual official high and low records may vary slightly from our data, if they occured in-between our weather recording intervals... More about our weather records

Advertising

London weather history for previous 24 hours

 ConditionsComfort  
Time TempWeatherWind HumidityBarometerVisibility
4:00 AM
Oct 2
57 °FDrizzle. Fog.6 mph100%30.07 "Hg2 mi
3:00 AM57 °FFog.8 mph100%30.07 "Hg2 mi
2:00 AM59 °FFog.8 mph94%30.07 "Hg3 mi
1:00 AM59 °FFog.7 mph94%30.08 "Hg3 mi
12:00 AM57 °FFog.8 mph100%30.07 "Hg3 mi
11:00 PM
Oct 1
57 °FFog.9 mph100%30.08 "Hg2 mi
10:00 PM57 °FFog.7 mph100%30.08 "Hg2 mi
9:49 PM57 °FFog.8 mph100%30.08 "Hg2 mi
9:00 PM57 °FPassing clouds.6 mph94%30.07 "Hg8 mi
8:00 PM57 °FSunny.6 mph94%30.05 "Hg10 mi
7:00 PM61 °FPassing clouds.6 mph88%30.05 "Hg10 mi
6:00 PM63 °FPartly sunny.6 mph83%30.05 "Hg12 mi
5:00 PM63 °FPartly sunny.7 mph83%30.05 "Hg10 mi
4:00 PM63 °FOvercast.5 mph83%30.05 "Hg8 mi
3:00 PM63 °FMore clouds than sun.6 mph83%30.06 "Hg8 mi
2:00 PM61 °FLow clouds.6 mph88%30.08 "Hg8 mi
1:00 PM61 °FFog.8 mph88%30.09 "Hg6 mi
12:49 PM61 °FFog.6 mph88%30.08 "Hg6 mi
12:00 PM59 °FDrizzle. Fog.8 mph88%30.09 "Hg4 mi
11:00 AM59 °FFog.7 mph88%30.09 "Hg4 mi
10:00 AM57 °FFog.8 mph94%30.08 "Hg2 mi
9:50 AM57 °FFog.8 mph100%30.08 "Hg2 mi
9:00 AM57 °FFog.7 mph100%30.06 "Hg2 mi
8:45 AM57 °FFog.7 mph100%30.06 "Hg2 mi
8:00 AM57 °FFog.5 mph100%30.05 "Hg2 mi
7:00 AM57 °FFog.9 mph100%30.04 "Hg4 mi
6:50 AM57 °FFog.9 mph100%30.04 "Hg4 mi
6:00 AM59 °FFog.6 mph94%30.03 "Hg4 mi
5:00 AM59 °FOvercast.2 mph94%30.02 "Hg8 mi
Weather by CustomWeather, © 2014

See weather overviewHow to use our weather pages